,,,PA_Meas_PMT16A,,PR_Meas_QMR101_102,,RH_Meas_QMH101,,SR_Meas_QMS101,,TA_Meas_QMH101,,GenWind,,GenWind,
date,time,status,PA,status,PR,status,RH,status,SR,status,TA,status,DirAvg,status,SpdAvg,
2012-08-16, 00:00:04,VALID,1001.23,VALID,0,VALID,48.7533,VALID,0,VALID,28.3073,VALID,178,VALID,6.88711,
2012-08-16, 00:01:04,VALID,1001.32,VALID,0,VALID,49.1119,VALID,0,VALID,28.1684,VALID,202,VALID,3.46875,
2012-08-16, 00:02:04,VALID,1001.21,VALID,0,VALID,49.3255,VALID,0.104696,VALID,28.1293,VALID,174,VALID,6.61367,
2012-08-16, 00:03:04,VALID,1001.25,VALID,0,VALID,49.5468,VALID,0,VALID,28.1119,VALID,188,VALID,5.34492,
2012-08-16, 00:04:04,VALID,1001.21,VALID,0,VALID,49.7299,VALID,0,VALID,28.0533,VALID,189,VALID,6.04805,
2012-08-16, 00:05:04,VALID,1001.21,VALID,0,VALID,49.6917,VALID,0,VALID,28.1315,VALID,162,VALID,5.84688,
2012-08-16, 00:06:04,VALID,1001.25,VALID,0,VALID,49.6536,VALID,0,VALID,28.1901,VALID,176,VALID,6.2,
2012-08-16, 00:07:04,VALID,1001.25,VALID,0,VALID,49.5315,VALID,0,VALID,28.2291,VALID,193,VALID,7.1875,
2012-08-16, 00:08:04,VALID,1001.26,VALID,0,VALID,49.829,VALID,0,VALID,28.0902,VALID,200,VALID,5.99102,
2012-08-16, 00:09:04,VALID,1001.19,VALID,0,VALID,50.0503,VALID,0,VALID,28.0924,VALID,188,VALID,6.05391,
2012-08-16, 00:10:04,VALID,1001.26,VALID,0,VALID,49.7375,VALID,0,VALID,28.2465,VALID,183,VALID,4.29453,
2012-08-16, 00:11:04,VALID,1001.25,VALID,0,VALID,49.501,VALID,0,VALID,28.3464,VALID,184,VALID,4.1668,
2012-08-16, 00:12:04,VALID,1001.21,VALID,0,VALID,49.2645,VALID,0,VALID,28.4224,VALID,184,VALID,3.25977,
2012-08-16, 00:13:04,VALID,1001.17,VALID,0,VALID,49.0813,VALID,0.104696,VALID,28.3833,VALID,195,VALID,4.33398,
2012-08-16, 00:14:04,VALID,1001.14,VALID,0,VALID,49.6765,VALID,0,VALID,28.2661,VALID,189,VALID,6.07422,
2012-08-16, 00:15:04,VALID,1001.14,VALID,0,VALID,49.7985,VALID,0,VALID,28.2856,VALID,174,VALID,5.93047,
2012-08-16, 00:16:04,VALID,1001.22,VALID,0,VALID,50.0732,VALID,0,VALID,28.2096,VALID,196,VALID,3.19688,
2012-08-16, 00:17:04,VALID,1001.16,VALID,0,VALID,50.3631,VALID,0.104696,VALID,28.151,VALID,176,VALID,4.71172,
2012-08-16, 00:18:04,VALID,1001.12,VALID,0,VALID,50.447,VALID,0,VALID,28.1315,VALID,191,VALID,3.83008,
2012-08-16, 00:19:04,VALID,1001.09,VALID,0,VALID,50.7599,VALID,0,VALID,28.1119,VALID,176,VALID,4.0168,
2012-08-16, 00:20:04,VALID,1001.09,VALID,0,VALID,50.5539,VALID,0,VALID,28.1684,VALID,186,VALID,4.17461,
2012-08-16, 00:21:04,VALID,1001.03,VALID,0,VALID,50.5005,VALID,0,VALID,28.1119,VALID,202,VALID,5.32305,
2012-08-16, 00:22:04,VALID,1001.07,VALID,0,VALID,50.9048,VALID,0,VALID,28.0359,VALID,201,VALID,3.76367,
2012-08-16, 00:23:04,VALID,1000.97,VALID,0,VALID,50.9659,VALID,0,VALID,28.0533,VALID,180,VALID,4.93203,
2012-08-16, 00:24:04,VALID,1001.01,VALID,0,VALID,51.1719,VALID,0,VALID,28.075,VALID,201,VALID,5.05117,
2012-08-16, 00:25:04,VALID,1000.89,VALID,0,VALID,50.9582,VALID,0,VALID,28.0728,VALID,172,VALID,7.61562,
2012-08-16, 00:26:04,VALID,1000.92,VALID,0,VALID,51.2787,VALID,0,VALID,28.0338,VALID,167,VALID,6.49492,
2012-08-16, 00:27:04,VALID,1000.85,VALID,0,VALID,50.8819,VALID,0,VALID,28.2508,VALID,179,VALID,4.90703,
2012-08-16, 00:28:04,VALID,1000.83,VALID,0,VALID,50.7065,VALID,0,VALID,28.2508,VALID,176,VALID,6.07617,
2012-08-16, 00:29:04,VALID,1000.79,VALID,0,VALID,50.9964,VALID,0,VALID,28.1922,VALID,174,VALID,7.02539,
2012-08-16, 00:30:04,VALID,1000.88,VALID,0,VALID,51.0498,VALID,0,VALID,28.1315,VALID,180,VALID,3.08164,
2012-08-16, 00:31:04,VALID,1000.8,VALID,0,VALID,50.8285,VALID,0,VALID,28.1727,VALID,173,VALID,7.53125,
2012-08-16, 00:32:04,VALID,1000.86,VALID,0,VALID,50.8972,VALID,0,VALID,28.1901,VALID,174,VALID,5.71523,
2012-08-16, 00:33:04,VALID,1000.81,VALID,0,VALID,51.1948,VALID,0,VALID,28.1531,VALID,173,VALID,6.53906,
2012-08-16, 00:34:04,VALID,1000.76,VALID,0,VALID,51.1642,VALID,0,VALID,28.1119,VALID,190,VALID,7.41211,
2012-08-16, 00:35:04,VALID,1000.85,VALID,0,VALID,50.8972,VALID,0,VALID,28.1901,VALID,194,VALID,5.11953,
2012-08-16, 00:36:04,VALID,1000.79,VALID,0,VALID,50.6912,VALID,0,VALID,28.3073,VALID,167,VALID,6.53242,
2012-08-16, 00:37:04,VALID,1000.74,VALID,0,VALID,50.9582,VALID,0,VALID,28.1684,VALID,159,VALID,6.70703,
2012-08-16, 00:38:04,VALID,1000.73,VALID,0,VALID,51.1413,VALID,0,VALID,28.1098,VALID,167,VALID,7.02734,
2012-08-16, 00:39:04,VALID,1000.72,VALID,0,VALID,51.7746,VALID,0,VALID,28.0728,VALID,168,VALID,6.47383,
2012-08-16, 00:40:04,VALID,1000.71,VALID,0,VALID,51.7822,VALID,0,VALID,27.973,VALID,174,VALID,4.32656,
2012-08-16, 00:41:04,VALID,1000.74,VALID,0,VALID,51.6525,VALID,0,VALID,28.0533,VALID,180,VALID,4.48945,
2012-08-16, 00:42:04,VALID,1000.76,VALID,0,VALID,51.5839,VALID,0,VALID,28.0142,VALID,166,VALID,4.89375,
2012-08-16, 00:43:04,VALID,1000.62,VALID,0,VALID,51.3626,VALID,0,VALID,28.0121,VALID,164,VALID,8.35625,
2012-08-16, 00:44:04,VALID,1000.72,VALID,0,VALID,51.2405,VALID,0,VALID,28.0902,VALID,171,VALID,6.90391,
2012-08-16, 00:45:04,VALID,1000.7,VALID,0,VALID,50.9811,VALID,0,VALID,28.1901,VALID,171,VALID,5.47617,
2012-08-16, 00:46:04,VALID,1000.68,VALID,0,VALID,51.3168,VALID,0,VALID,28.1293,VALID,188,VALID,4.73672,
2012-08-16, 00:47:04,VALID,1000.65,VALID,0,VALID,51.2024,VALID,0,VALID,28.1705,VALID,179,VALID,5.35078,
2012-08-16, 00:48:04,VALID,1000.64,VALID,0,VALID,51.1795,VALID,0,VALID,28.1098,VALID,169,VALID,4.92461,
2012-08-16, 00:49:04,VALID,1000.66,VALID,0,VALID,51.5228,VALID,0.104696,VALID,28.0902,VALID,174,VALID,4.35391,
2012-08-16, 00:50:04,VALID,1000.65,VALID,0,VALID,51.6068,VALID,0,VALID,28.0728,VALID,171,VALID,4.075,
2012-08-16, 00:51:04,VALID,1000.65,VALID,0,VALID,51.2329,VALID,0,VALID,28.1315,VALID,182,VALID,4.15664,
2012-08-16, 00:52:04,VALID,1000.61,VALID,0,VALID,51.2405,VALID,0,VALID,28.1901,VALID,172,VALID,4.52578,
2012-08-16, 00:53:04,VALID,1000.57,VALID,0,VALID,51.3245,VALID,0,VALID,28.1293,VALID,175,VALID,5.17852,
2012-08-16, 00:54:04,VALID,1000.53,VALID,0,VALID,51.1032,VALID,0,VALID,28.1489,VALID,167,VALID,4.58516,
2012-08-16, 00:55:04,VALID,1000.46,VALID,0,VALID,51.0498,VALID,0,VALID,28.1684,VALID,169,VALID,5.47305,
2012-08-16, 00:56:04,VALID,1000.46,VALID,0,VALID,51.0879,VALID,0,VALID,28.1705,VALID,158,VALID,5.3918,
2012-08-16, 00:57:04,VALID,1000.42,VALID,0,VALID,50.7828,VALID,0,VALID,28.1705,VALID,188,VALID,6.00195,
2012-08-16, 00:58:04,VALID,1000.5,VALID,0,VALID,50.7446,VALID,0.104696,VALID,28.2075,VALID,187,VALID,5.20937,
2012-08-16, 00:59:04,VALID,1000.5,VALID,0,VALID,50.8514,VALID,0,VALID,28.2487,VALID,187,VALID,4.68516,
2012-08-16, 01:00:04,VALID,1000.48,VALID,0,VALID,50.8743,VALID,0,VALID,28.1901,VALID,197,VALID,4.75586,
2012-08-16, 01:01:04,VALID,1000.44,VALID,0,VALID,51.2787,VALID,0,VALID,28.1098,VALID,188,VALID,4.5543,
2012-08-16, 01:02:04,VALID,1000.47,VALID,0,VALID,51.3245,VALID,0,VALID,28.0902,VALID,192,VALID,5.3375,
2012-08-16, 01:03:04,VALID,1000.48,VALID,0,VALID,51.4465,VALID,0,VALID,28.0707,VALID,181,VALID,4.58125,
2012-08-16, 01:04:04,VALID,1000.35,VALID,0,VALID,51.3473,VALID,0,VALID,28.0512,VALID,194,VALID,6.32109,
2012-08-16, 01:05:04,VALID,1000.45,VALID,0,VALID,51.6144,VALID,0,VALID,28.0512,VALID,181,VALID,3.97578,
2012-08-16, 01:06:04,VALID,1000.37,VALID,0,VALID,51.3245,VALID,0,VALID,28.0924,VALID,177,VALID,6.10469,
2012-08-16, 01:07:04,VALID,1000.43,VALID,0,VALID,51.5991,VALID,0,VALID,28.0512,VALID,182,VALID,5.9043,
2012-08-16, 01:08:04,VALID,1000.41,VALID,0,VALID,51.6144,VALID,0,VALID,28.0316,VALID,196,VALID,4.28516,
2012-08-16, 01:09:04,VALID,1000.4,VALID,0,VALID,51.6373,VALID,0,VALID,28.0533,VALID,194,VALID,4.29297,
2012-08-16, 01:10:04,VALID,1000.35,VALID,0,VALID,51.5533,VALID,0,VALID,28.0316,VALID,191,VALID,5.58984,
2012-08-16, 01:11:04,VALID,1000.35,VALID,0,VALID,51.6525,VALID,0,VALID,28.0728,VALID,184,VALID,4.72305,
2012-08-16, 01:12:04,VALID,1000.4,VALID,0,VALID,51.4618,VALID,0,VALID,28.0728,VALID,175,VALID,5.26367,
2012-08-16, 01:13:04,VALID,1000.34,VALID,0,VALID,51.416,VALID,0,VALID,28.0902,VALID,190,VALID,5.83984,
2012-08-16, 01:14:04,VALID,1000.25,VALID,0,VALID,51.1566,VALID,0,VALID,28.1098,VALID,175,VALID,5.63633,
2012-08-16, 01:15:04,VALID,1000.41,VALID,0,VALID,51.1719,VALID,0,VALID,28.1098,VALID,185,VALID,6.09727,
2012-08-16, 01:16:04,VALID,1000.33,VALID,0,VALID,51.1337,VALID,0,VALID,28.1489,VALID,168,VALID,5.80391,
2012-08-16, 01:17:04,VALID,1000.3,VALID,0,VALID,51.1948,VALID,0,VALID,28.1705,VALID,186,VALID,6.06719,
2012-08-16, 01:18:04,VALID,1000.32,VALID,0,VALID,50.7904,VALID,0,VALID,28.2075,VALID,175,VALID,7.2375,
2012-08-16, 01:19:04,VALID,1000.35,VALID,0,VALID,50.9277,VALID,0.104696,VALID,28.1879,VALID,175,VALID,5.64219,
2012-08-16, 01:20:04,VALID,1000.35,VALID,0,VALID,51.004,VALID,0,VALID,28.2075,VALID,169,VALID,7.15039,
2012-08-16, 01:21:04,VALID,1000.32,VALID,0,VALID,50.9659,VALID,0,VALID,28.1684,VALID,172,VALID,5.76172,
2012-08-16, 01:22:04,VALID,1000.34,VALID,0,VALID,51.0422,VALID,0.104696,VALID,28.1901,VALID,173,VALID,5.26602,
2012-08-16, 01:23:04,VALID,1000.39,VALID,0,VALID,50.8896,VALID,0.104696,VALID,28.2075,VALID,181,VALID,3.58711,
2012-08-16, 01:24:04,VALID,1000.36,VALID,0,VALID,50.943,VALID,0,VALID,28.2075,VALID,180,VALID,4.48594,
2012-08-16, 01:25:04,VALID,1000.34,VALID,0,VALID,51.1871,VALID,0,VALID,28.1489,VALID,171,VALID,4.17539,
2012-08-16, 01:26:04,VALID,1000.34,VALID,0,VALID,51.3016,VALID,0,VALID,28.1293,VALID,188,VALID,3.22617,
2012-08-16, 01:27:04,VALID,1000.32,VALID,0,VALID,51.355,VALID,0,VALID,28.1315,VALID,189,VALID,3.43594,
2012-08-16, 01:28:04,VALID,1000.33,VALID,0,VALID,51.4236,VALID,0,VALID,28.0902,VALID,193,VALID,3.14023,
2012-08-16, 01:29:04,VALID,1000.33,VALID,0,VALID,51.561,VALID,0,VALID,28.0707,VALID,183,VALID,3.21523,
2012-08-16, 01:30:04,VALID,1000.3,VALID,0,VALID,51.3092,VALID,0,VALID,28.1119,VALID,178,VALID,4.82852,
2012-08-16, 01:31:04,VALID,1000.29,VALID,0,VALID,51.4618,VALID,0,VALID,28.0902,VALID,190,VALID,3.19648,
2012-08-16, 01:32:04,VALID,1000.25,VALID,0,VALID,51.4236,VALID,0,VALID,28.0707,VALID,173,VALID,3.60547,
2012-08-16, 01:33:04,VALID,1000.27,VALID,0,VALID,51.3473,VALID,0,VALID,28.0902,VALID,182,VALID,3.35781,
2012-08-16, 01:34:04,VALID,1000.21,VALID,0,VALID,51.1413,VALID,0,VALID,28.1705,VALID,193,VALID,3.11406,
2012-08-16, 01:35:04,VALID,1000.21,VALID,0,VALID,51.1642,VALID,0,VALID,28.1489,VALID,190,VALID,2.73828,
2012-08-16, 01:36:04,VALID,1000.2,VALID,0,VALID,50.9888,VALID,0,VALID,28.151,VALID,187,VALID,4.75508,
2012-08-16, 01:37:04,VALID,1000.22,VALID,0,VALID,51.1795,VALID,0.104696,VALID,28.1705,VALID,193,VALID,2.25859,
2012-08-16, 01:38:04,VALID,1000.22,VALID,0,VALID,51.4618,VALID,0,VALID,28.0707,VALID,200,VALID,2.77383,
2012-08-16, 01:39:04,VALID,1000.19,VALID,0,VALID,51.7441,VALID,0,VALID,27.973,VALID,216,VALID,2.26406,
2012-08-16, 01:40:04,VALID,1000.19,VALID,0,VALID,51.9806,VALID,0,VALID,27.9144,VALID,189,VALID,3.79414,
2012-08-16, 01:41:04,VALID,1000.18,VALID,0,VALID,52.2019,VALID,0,VALID,27.8949,VALID,190,VALID,3.20547,
2012-08-16, 01:42:04,VALID,1000.16,VALID,0,VALID,52.1179,VALID,0,VALID,27.8754,VALID,220,VALID,2.56758,
2012-08-16, 01:43:04,VALID,1000.18,VALID,0,VALID,52.1637,VALID,0.104696,VALID,27.8754,VALID,184,VALID,2.625,
2012-08-16, 01:44:04,VALID,1000.18,VALID,0,VALID,52.4689,VALID,0,VALID,27.8168,VALID,208,VALID,1.39766,
2012-08-16, 01:45:04,VALID,1000.19,VALID,0,VALID,52.6673,VALID,0,VALID,27.7582,VALID,202,VALID,1.58828,
2012-08-16, 01:46:04,VALID,1000.16,VALID,0,VALID,53.2166,VALID,0,VALID,27.7212,VALID,225,VALID,1.68906,
2012-08-16, 01:47:04,VALID,1000.17,VALID,0,VALID,52.858,VALID,0,VALID,27.6605,VALID,174,VALID,1.26758,
2012-08-16, 01:48:04,VALID,1000.19,VALID,0,VALID,53.331,VALID,0,VALID,27.6214,VALID,226,VALID,1.55313,
2012-08-16, 01:49:04,VALID,1000.16,VALID,0,VALID,53.6973,VALID,0.104696,VALID,27.5824,VALID,242,VALID,2.29063,
2012-08-16, 01:50:04,VALID,1000.15,VALID,0,VALID,54.1093,VALID,0,VALID,27.4847,VALID,223,VALID,1.5082,
2012-08-16, 01:51:04,VALID,1000.11,VALID,0,VALID,54.4297,VALID,0.104696,VALID,27.387,VALID,224,VALID,1.04766,
2012-08-16, 01:52:04,VALID,1000.08,VALID,0,VALID,54.6204,VALID,0,VALID,27.3305,VALID,214,VALID,1.50156,
2012-08-16, 01:53:04,VALID,1000.05,VALID,0,VALID,55.1087,VALID,0,VALID,27.2524,VALID,250,VALID,1.33359,
2012-08-16, 01:54:04,VALID,1000.05,VALID,0,VALID,55.3834,VALID,0,VALID,27.2133,VALID,218,VALID,1.75781,
2012-08-16, 01:55:05,VALID,1000.01,VALID,0,VALID,55.3224,VALID,0.104696,VALID,27.1743,VALID,211,VALID,2.68711,
2012-08-16, 01:56:04,VALID,1000.03,VALID,0,VALID,55.391,VALID,0,VALID,27.1743,VALID,208,VALID,1.88633,
2012-08-16, 01:57:05,VALID,1000.05,VALID,0,VALID,55.2232,VALID,0.104696,VALID,27.1547,VALID,225,VALID,2.625,
2012-08-16, 01:58:05,VALID,999.981,VALID,0,VALID,55.3453,VALID,0,VALID,27.1743,VALID,231,VALID,1.90937,
2012-08-16, 01:59:05,VALID,999.984,VALID,0,VALID,55.33,VALID,0,VALID,27.1547,VALID,209,VALID,2.98789,
2012-08-16, 02:00:05,VALID,1000.02,VALID,0,VALID,55.3605,VALID,0,VALID,27.1331,VALID,233,VALID,1.93867,
2012-08-16, 02:01:05,VALID,999.977,VALID,0,VALID,55.2003,VALID,0,VALID,27.1743,VALID,217,VALID,1.78906,
2012-08-16, 02:02:05,VALID,999.973,VALID,0,VALID,55.4292,VALID,0,VALID,27.1527,VALID,226,VALID,1.64727,
2012-08-16, 02:03:05,VALID,999.946,VALID,0,VALID,55.3224,VALID,0,VALID,27.1527,VALID,200,VALID,2.76211,
2012-08-16, 02:04:05,VALID,999.953,VALID,0,VALID,55.3224,VALID,0,VALID,27.1547,VALID,213,VALID,2.54063,
2012-08-16, 02:05:05,VALID,999.979,VALID,0,VALID,55.6428,VALID,0,VALID,27.1157,VALID,218,VALID,3.02227,
2012-08-16, 02:06:05,VALID,999.938,VALID,0,VALID,55.5894,VALID,0,VALID,27.0982,VALID,204,VALID,1.825,
2012-08-16, 02:07:05,VALID,999.954,VALID,0,VALID,55.6047,VALID,0,VALID,27.0766,VALID,217,VALID,2.76367,
2012-08-16, 02:08:05,VALID,999.924,VALID,0,VALID,55.5055,VALID,0,VALID,27.1157,VALID,215,VALID,2.37305,
2012-08-16, 02:09:05,VALID,999.954,VALID,0,VALID,55.4368,VALID,0,VALID,27.1177,VALID,224,VALID,2.81367,
2012-08-16, 02:10:05,VALID,999.92,VALID,0,VALID,55.4826,VALID,0,VALID,27.0766,VALID,223,VALID,3.30547,
2012-08-16, 02:11:05,VALID,999.945,VALID,0,VALID,55.6123,VALID,0,VALID,27.0787,VALID,213,VALID,3.00703,
2012-08-16, 02:12:05,VALID,999.967,VALID,0,VALID,55.6504,VALID,0,VALID,27.0961,VALID,218,VALID,1.97109,
2012-08-16, 02:13:05,VALID,999.947,VALID,0,VALID,55.4445,VALID,0,VALID,27.0961,VALID,218,VALID,2.72227,
2012-08-16, 02:14:05,VALID,999.955,VALID,0,VALID,55.4826,VALID,0,VALID,27.0961,VALID,195,VALID,2.12695,
2012-08-16, 02:15:05,VALID,999.962,VALID,0,VALID,55.7496,VALID,0,VALID,27.0766,VALID,213,VALID,2.22617,
2012-08-16, 02:16:05,VALID,999.968,VALID,0,VALID,55.4292,VALID,0,VALID,27.0961,VALID,223,VALID,2.60938,
2012-08-16, 02:17:05,VALID,999.952,VALID,0,VALID,55.5513,VALID,0,VALID,27.0982,VALID,214,VALID,2.66992,
2012-08-16, 02:18:05,VALID,999.952,VALID,0,VALID,55.6123,VALID,0,VALID,27.0982,VALID,202,VALID,2.77422,
2012-08-16, 02:19:05,VALID,999.962,VALID,0,VALID,55.6733,VALID,0,VALID,27.0787,VALID,228,VALID,3.37695,
2012-08-16, 02:20:05,VALID,999.965,VALID,0,VALID,55.7573,VALID,0,VALID,27.0571,VALID,218,VALID,3.30508,
2012-08-16, 02:21:05,VALID,999.944,VALID,0,VALID,55.536,VALID,0,VALID,27.0766,VALID,217,VALID,2.73125,
2012-08-16, 02:22:05,VALID,999.948,VALID,0,VALID,55.536,VALID,0,VALID,27.0982,VALID,227,VALID,2.96484,
2012-08-16, 02:23:05,VALID,999.964,VALID,0,VALID,55.6047,VALID,0,VALID,27.0787,VALID,207,VALID,2.71875,
2012-08-16, 02:24:05,VALID,999.931,VALID,0,VALID,55.8793,VALID,0,VALID,27.0375,VALID,217,VALID,2.72461,
2012-08-16, 02:25:05,VALID,999.97,VALID,0,VALID,55.8793,VALID,0,VALID,27.0396,VALID,237,VALID,3.19141,
2012-08-16, 02:26:05,VALID,1000.02,VALID,0,VALID,55.9099,VALID,0,VALID,27.0005,VALID,209,VALID,1.94609,
2012-08-16, 02:27:05,VALID,999.984,VALID,0,VALID,55.742,VALID,0,VALID,27.018,VALID,209,VALID,2.34648,
2012-08-16, 02:28:05,VALID,1000.07,VALID,0,VALID,55.7344,VALID,0,VALID,27.0375,VALID,216,VALID,2.6582,
2012-08-16, 02:29:05,VALID,999.994,VALID,0,VALID,55.9785,VALID,0,VALID,27.0396,VALID,223,VALID,1.62383,
2012-08-16, 02:30:05,VALID,1000.04,VALID,0,VALID,56.2913,VALID,0,VALID,27.0005,VALID,235,VALID,1.46758,
2012-08-16, 02:31:05,VALID,1000.04,VALID,0,VALID,56.1769,VALID,0,VALID,26.981,VALID,215,VALID,2.1125,
2012-08-16, 02:32:05,VALID,1000.03,VALID,0,VALID,56.0853,VALID,0,VALID,26.981,VALID,218,VALID,2.40859,
2012-08-16, 02:33:05,VALID,1000.08,VALID,0,VALID,56.0319,VALID,0,VALID,26.981,VALID,213,VALID,2.72617,
2012-08-16, 02:34:05,VALID,1000.03,VALID,0,VALID,56.1922,VALID,0,VALID,26.9594,VALID,212,VALID,2.71289,
2012-08-16, 02:35:05,VALID,1000.03,VALID,0,VALID,56.2227,VALID,0,VALID,26.981,VALID,210,VALID,1.99375,
2012-08-16, 02:36:05,VALID,1000.04,VALID,0,VALID,56.2074,VALID,0,VALID,26.9399,VALID,205,VALID,3.19688,
2012-08-16, 02:37:05,VALID,1000.09,VALID,0,VALID,56.2761,VALID,0,VALID,26.9615,VALID,220,VALID,2.13047,
2012-08-16, 02:38:05,VALID,1000.11,VALID,0,VALID,55.9785,VALID,0,VALID,26.9594,VALID,206,VALID,2.29453,
2012-08-16, 02:39:05,VALID,1000.12,VALID,0,VALID,56.1464,VALID,0,VALID,26.9789,VALID,213,VALID,2.37031,
2012-08-16, 02:40:05,VALID,1000.13,VALID,0,VALID,56.154,VALID,0,VALID,26.9594,VALID,236,VALID,2.57617,
2012-08-16, 02:41:05,VALID,1000.17,VALID,0,VALID,55.9709,VALID,0,VALID,26.9789,VALID,209,VALID,2.58437,
2012-08-16, 02:42:05,VALID,1000.25,VALID,0,VALID,56.0853,VALID,0,VALID,26.9789,VALID,218,VALID,1.54492,
2012-08-16, 02:43:05,VALID,1000.24,VALID,0,VALID,56.1922,VALID,0,VALID,26.9985,VALID,209,VALID,2.04414,
2012-08-16, 02:44:05,VALID,1000.27,VALID,0,VALID,55.8183,VALID,0,VALID,27.018,VALID,196,VALID,1.76406,
2012-08-16, 02:45:05,VALID,1000.27,VALID,0,VALID,55.7039,VALID,0,VALID,27.0591,VALID,197,VALID,2.46172,
2012-08-16, 02:46:05,VALID,1000.31,VALID,0,VALID,55.7573,VALID,0,VALID,27.0591,VALID,200,VALID,1.94414,
2012-08-16, 02:47:05,VALID,1000.32,VALID,0,VALID,55.948,VALID,0,VALID,27.018,VALID,218,VALID,1.51875,
2012-08-16, 02:48:05,VALID,1000.27,VALID,0,VALID,55.9251,VALID,0,VALID,27.018,VALID,205,VALID,2.24375,
2012-08-16, 02:49:05,VALID,1000.28,VALID,0,VALID,55.948,VALID,0,VALID,27.018,VALID,189,VALID,2.93906,
2012-08-16, 02:50:05,VALID,1000.27,VALID,0,VALID,55.8259,VALID,0,VALID,27.0375,VALID,194,VALID,3.38984,
2012-08-16, 02:51:05,VALID,1000.28,VALID,0,VALID,55.8412,VALID,0,VALID,27.0571,VALID,189,VALID,2.46133,
2012-08-16, 02:52:05,VALID,1000.24,VALID,0,VALID,55.5665,VALID,0,VALID,27.0766,VALID,196,VALID,2.84727,
2012-08-16, 02:53:05,VALID,1000.26,VALID,0,VALID,55.3071,VALID,0,VALID,27.1547,VALID,195,VALID,2.00625,
2012-08-16, 02:54:05,VALID,1000.26,VALID,0,VALID,55.4139,VALID,0,VALID,27.1568,VALID,210,VALID,2.22539,
2012-08-16, 02:55:05,VALID,1000.25,VALID,0,VALID,55.3834,VALID,0,VALID,27.1959,VALID,202,VALID,3.60703,
2012-08-16, 02:56:05,VALID,1000.3,VALID,0,VALID,55.1774,VALID,0,VALID,27.2154,VALID,196,VALID,3.00508,
2012-08-16, 02:57:05,VALID,1000.31,VALID,0,VALID,55.1393,VALID,0,VALID,27.1938,VALID,193,VALID,3.4207,
2012-08-16, 02:58:05,VALID,1000.33,VALID,0,VALID,55.4902,VALID,0,VALID,27.1743,VALID,202,VALID,1.94531,
2012-08-16, 02:59:05,VALID,1000.34,VALID,0,VALID,55.3224,VALID,0,VALID,27.1547,VALID,193,VALID,3.00938,
2012-08-16, 03:00:05,VALID,1000.32,VALID,0,VALID,55.4292,VALID,0,VALID,27.1547,VALID,193,VALID,3.89687,
2012-08-16, 03:01:05,VALID,1000.36,VALID,0,VALID,55.33,VALID,0,VALID,27.1763,VALID,209,VALID,2.77695,
2012-08-16, 03:02:05,VALID,1000.35,VALID,0,VALID,55.2995,VALID,0,VALID,27.1547,VALID,215,VALID,2.28945,
2012-08-16, 03:03:05,VALID,1000.38,VALID,0,VALID,55.2537,VALID,0,VALID,27.1743,VALID,203,VALID,2.49336,
2012-08-16, 03:04:05,VALID,1000.39,VALID,0,VALID,55.0782,VALID,0,VALID,27.2133,VALID,200,VALID,3.04258,
2012-08-16, 03:05:05,VALID,1000.39,VALID,0,VALID,54.9333,VALID,0,VALID,27.2329,VALID,194,VALID,2.92539,
2012-08-16, 03:06:05,VALID,1000.4,VALID,0,VALID,55.1545,VALID,0,VALID,27.2329,VALID,206,VALID,2.55078,
2012-08-16, 03:07:05,VALID,1000.36,VALID,0,VALID,55.0859,VALID,0,VALID,27.2133,VALID,219,VALID,3.25039,
2012-08-16, 03:08:05,VALID,1000.4,VALID,0,VALID,55.2842,VALID,0,VALID,27.1938,VALID,207,VALID,2.97539,
2012-08-16, 03:09:05,VALID,1000.38,VALID,0,VALID,55.33,VALID,0,VALID,27.1959,VALID,193,VALID,2.67773,
2012-08-16, 03:10:05,VALID,1000.4,VALID,0,VALID,55.3376,VALID,0,VALID,27.1352,VALID,197,VALID,2.54531,
2012-08-16, 03:11:05,VALID,1000.4,VALID,0,VALID,55.1927,VALID,0,VALID,27.1743,VALID,189,VALID,3.27148,
2012-08-16, 03:12:05,VALID,1000.41,VALID,0,VALID,55.2461,VALID,0,VALID,27.1938,VALID,194,VALID,2.03984,
2012-08-16, 03:13:05,VALID,1000.41,VALID,0,VALID,55.7344,VALID,0,VALID,27.1938,VALID,154,VALID,3.35898,
2012-08-16, 03:14:05,VALID,1000.43,VALID,0,VALID,56.421,VALID,0,VALID,27.018,VALID,151,VALID,2.66211,
2012-08-16, 03:15:05,VALID,1000.41,VALID,0,VALID,57.4968,VALID,0,VALID,26.8422,VALID,145,VALID,1.975,
2012-08-16, 03:16:05,VALID,1000.38,VALID,0,VALID,57.7944,VALID,0,VALID,26.686,VALID,149,VALID,2.28555,
2012-08-16, 03:17:05,VALID,1000.39,VALID,0,VALID,58.0004,VALID,0,VALID,26.6685,VALID,153,VALID,1.96445,
2012-08-16, 03:18:05,VALID,1000.42,VALID,0,VALID,58.0156,VALID,0,VALID,26.6469,VALID,152,VALID,1.76992,
2012-08-16, 03:19:05,VALID,1000.41,VALID,0,VALID,58.3666,VALID,0,VALID,26.6079,VALID,151,VALID,1.84023,
2012-08-16, 03:20:05,VALID,1000.41,VALID,0,VALID,58.42,VALID,0,VALID,26.5688,VALID,154,VALID,1.95,
2012-08-16, 03:21:05,VALID,1000.4,VALID,0,VALID,58.4429,VALID,0,VALID,26.5688,VALID,148,VALID,1.88945,
2012-08-16, 03:22:05,VALID,1000.41,VALID,0,VALID,58.5573,VALID,0,VALID,26.5102,VALID,143,VALID,1.87734,
2012-08-16, 03:23:05,VALID,1000.42,VALID,0,VALID,58.9312,VALID,0,VALID,26.4692,VALID,146,VALID,1.76992,
2012-08-16, 03:24:05,VALID,1000.4,VALID,0,VALID,58.9083,VALID,0,VALID,26.4497,VALID,143,VALID,1.93281,
2012-08-16, 03:25:05,VALID,1000.41,VALID,0,VALID,58.4734,VALID,0,VALID,26.4497,VALID,148,VALID,2.19844,
2012-08-16, 03:26:05,VALID,1000.4,VALID,0,VALID,57.9546,VALID,0,VALID,26.5863,VALID,157,VALID,2.59141,
2012-08-16, 03:27:05,VALID,1000.43,VALID,0,VALID,60.007,VALID,0.104696,VALID,26.5473,VALID,115,VALID,1.08633,
2012-08-16, 03:28:05,VALID,1000.42,VALID,0,VALID,61.7999,VALID,0,VALID,26.2954,VALID,120,VALID,0.679297,
2012-08-16, 03:29:05,VALID,1000.37,VALID,0,VALID,63.4556,VALID,0,VALID,26.0006,VALID,116,VALID,0.830469,
2012-08-16, 03:30:05,VALID,1000.32,VALID,0,VALID,64.394,VALID,0,VALID,25.7468,VALID,106,VALID,1.03086,
2012-08-16, 03:31:05,VALID,1000.34,VALID,0,VALID,65.0349,VALID,0,VALID,25.5516,VALID,106,VALID,1.01211,
2012-08-16, 03:32:05,VALID,1000.32,VALID,0,VALID,65.7673,VALID,0,VALID,25.4149,VALID,106,VALID,0.659375,
2012-08-16, 03:33:05,VALID,1000.3,VALID,0,VALID,66.4082,VALID,0.104696,VALID,25.3173,VALID,106,VALID,0.189063,
2012-08-16, 03:34:05,VALID,1000.31,VALID,0,VALID,66.4845,VALID,0,VALID,25.2197,VALID,110,VALID,0.471484,
2012-08-16, 03:35:05,VALID,1000.27,VALID,0,VALID,66.3243,VALID,0,VALID,25.1417,VALID,114,VALID,0.0222656,
2012-08-16, 03:36:05,VALID,1000.24,VALID,0,VALID,66.9041,VALID,0,VALID,25.1241,VALID,114,VALID,0.142188,
2012-08-16, 03:37:05,VALID,1000.23,VALID,0,VALID,65.2104,VALID,0,VALID,25.1455,VALID,169,VALID,0.711328,
2012-08-16, 03:38:05,VALID,1000.25,VALID,0,VALID,63.4174,VALID,0,VALID,25.4364,VALID,185,VALID,1.03594,
2012-08-16, 03:39:05,VALID,1000.18,VALID,0,VALID,61.0293,VALID,0,VALID,25.8073,VALID,192,VALID,1.62891,
2012-08-16, 03:40:05,VALID,1000.19,VALID,0,VALID,59.8696,VALID,0,VALID,26.0807,VALID,188,VALID,1.65703,
2012-08-16, 03:41:05,VALID,1000.18,VALID,0,VALID,58.2293,VALID,0,VALID,26.3736,VALID,198,VALID,2.48164,
2012-08-16, 03:42:05,VALID,1000.15,VALID,0,VALID,57.4434,VALID,0,VALID,26.6079,VALID,176,VALID,2.38672,
2012-08-16, 03:43:05,VALID,1000.17,VALID,0,VALID,56.978,VALID,0,VALID,26.7446,VALID,190,VALID,1.85391,
2012-08-16, 03:44:05,VALID,1000.17,VALID,0,VALID,56.6118,VALID,0,VALID,26.8032,VALID,170,VALID,2.83398,
2012-08-16, 03:45:05,VALID,1000.16,VALID,0,VALID,56.4668,VALID,0,VALID,26.8813,VALID,186,VALID,1.58477,